Location: DARK SKY Beskydy - Park tmavé oblohy, www.darkskybeskydy.cz
(49.4926°N, 18.5016°E)
Time: 04:13:52
(UTC+02:00)

A-11 Canister half - Pass Details

Date: 28 February 2024
Orbit: 1513 x 1686 km, 47.2° (Epoch: 24 April)

Event Time Altitude Azimuth Distance (km) Brightness Sun altitude
Rises 04:25:27 0° 273° (W) 4,934 - -21.3°
Reaches altitude 10° 04:28:38 10° 272° (W) 3,936 - -20.8°
Exits shadow 04:32:35 28° 269° (W) 2,761 9.7 -20.1°
Maximum altitude 04:38:43 77° 189° (S) 1,683 9.1 -19.1°
Drops below altitude 10° 04:48:28 10° 106° (ESE) 3,813 12.1 -17.6°
Sets 04:51:31 0° 105° (ESE) 4,775 12.9 -17.1°
